Simultaneous Nadir Overpasses (SNOs) Predictions

Prediction of SNOs between GOES-17 and METOP-C Satellite Orbit:

Table of predicted SNOs for the next 14.0 days since TLE Epoch: 3/13/2020
Index Date Time (GOES-17) GOES-17 Lat,Lon METOP-C Lat,Lon Distance(km) Time Diff (sec)
1 03/14/2020 06:41:56 -0.00,-137.20 -0.02,-137.29 10.59 80
2 03/16/2020 18:40:09 -0.01,-137.22 -0.06,-136.86 40.82 80
3 03/18/2020 06:59:10 0.01,-137.19 -0.96,-141.45 485.96 80
4 03/19/2020 06:35:51 0.01,-137.19 0.18,-136.47 82.63 80
5 03/20/2020 18:54:45 -0.00,-137.21 0.83,-141.03 435.65 80
6 03/21/2020 18:36:45 0.00,-137.20 -0.26,-136.03 132.97 80
7 03/23/2020 06:55:45 -0.00,-137.17 -0.77,-140.63 394.01 80
8 03/24/2020 06:32:26 -0.01,-137.16 0.32,-135.63 174.17 80
9 03/25/2020 18:51:19 0.01,-137.17 0.68,-140.20 344.98 80
10 03/26/2020 18:33:20 0.01,-137.16 -0.41,-135.20 223.04 80




NCC Satellite Simultaneous Nadir Overpasses (SNOs) Prediction Service
